User: anonymous   Login
Location: Az?znagar
(16.8373°N, 80.5091°E)
Time: 04:23:51
(UTC+00:00)
Language:

APEX - Orbit

View from above orbital plane
View from above orbital plane
View from above satellite
View from above satellite

Ground track
Ground track

The orbit data is extracted from the following two-line orbital elements,

1 23191U 94046A   22144.79095330  .00034322  00000-0  89403-3 0  9999
2 23191  69.9121 286.4259 0486312 215.7326 141.0363 14.67510671377814
Epoch (UTC): 24 May 2022 18:58:58
Eccentricity: 0.0486312
inclination: 69.9121°
perigee height: 326 km
apogee height: 1012 km
right ascension of ascending node: 286.4259°
argument of perigee: 215.7326°
revolutions per day: 14.67510671
mean anomaly at epoch: 141.0363°
orbit number at epoch: 37781

The dashed part of the orbit path shows where the satellite is in the earth's shadow,  

DLR